Theta_e
324 325 325 325 324 324 324 323 322 320 318 319 318 318 319 318 317 321 309 314 316 324 323 315 316 315 312 309 311 311 304 302 303 303 306 311 310 315 324 319 324 324 324 331 329
324 325 326 325 324 324 324 323 319 318 317 317 317 317 317 317 317 316 317 324 323 323 314 311 311 312 310 307 310 307 303 302 307 308 307 310 311 313 315 318 318 320 324 331 327
324 324 325 325 324 323 323 323 319 317 317 316 317 317 316 317 313 312 323 322 324 321 315 313 313 310 305 308 306 306 302 306 307 308 309 308 309 314 313 314 319 319 323 326 326
323 323 324 324 324 323 323 322 319 317 317 316 316 317 316 314 301 315 326 325 324 317 314 311 309 307 303 302 308 302 305 307 307 308 308 308 310 310 313 315 320 322 326 327 327
322 322 323 324 324 323 322 321 320 318 316 314 315 317 320 314 315 321 320 319 315 313 312 308 307 305 303 304 305 304 305 306 308 308 308 309 308 308 311 316 317 320 324 326 328
321 321 322 323 323 322 321 320 319 317 315 313 315 315 314 307 323 322 313 313 316 316 314 311 309 308 305 304 304 305 305 305 306 306 307 305 307 308 310 315 316 320 322 326 327
321 321 321 321 322 321 321 320 317 315 314 312 314 313 308 312 324 321 316 317 317 317 314 312 310 307 307 304 307 305 302 304 305 306 305 307 303 304 311 314 315 317 321 324 326
321 320 319 320 320 320 319 317 315 313 312 312 313 310 304 323 321 316 319 317 318 317 314 313 310 308 305 307 304 301 303 298 303 304 305 306 298 306 312 312 313 316 318 320 322
320 319 319 318 317 315 314 312 312 311 311 313 311 309 307 319 313 316 318 314 310 309 311 310 309 306 304 301 301 301 297 298 300 305 304 304 300 306 311 310 310 313 316 318 320
318 318 316 315 313 312 311 311 311 310 312 313 310 304 310 310 312 310 313 311 306 306 305 305 305 302 302 301 295 298 297 299 298 302 302 301 301 305 308 309 310 312 314 317 318
316 315 313 312 311 310 309 307 305 305 306 307 307 307 308 312 311 309 309 307 306 305 301 304 300 297 302 303 303 301 298 297 300 302 299 300 301 303 306 307 308 310 312 314 316
313 312 311 310 310 309 312 306 308 308 304 309 308 308 310 310 305 308 308 302 301 298 301 298 296 302 303 301 300 299 296 297 301 302 299 299 300 304 305 305 307 308 310 312 315
312 312 311 310 309 308 305 307 308 308 302 305 308 307 308 309 304 307 308 305 301 300 299 298 302 302 299 299 296 298 297 298 297 300 301 299 298 302 305 305 306 307 309 311 313
312 312 310 310 308 305 303 308 308 306 291 299 298 303 305 307 302 309 311 307 302 298 301 300 303 301 300 297 299 295 302 297 296 296 293 299 291 300 304 303 303 304 306 308 310
312 311 310 312 308 304 307 309 308 304 283 297 298 307 305 302 302 301 308 306 300 299 298 297 296 295 295 298 300 296 299 298 298 296 296 296 292 299 301 300 302 304 305 308 310
312 311 309 307 310 308 310 310 306 289 281 292 298 297 298 300 300 302 301 305 303 300 302 299 304 298 297 297 298 300 297 297 296 295 288 294 294 296 300 300 301 305 305 307 309
312 310 309 310 304 311 310 304 289 283 291 290 292 296 296 295 296 297 297 296 295 290 293 298 298 300 300 296 299 297 294 289 287 286 287 295 293 296 302 302 303 303 306 309 310
311 309 308 309 311 311 308 296 283 287 287 292 292 292 292 294 294 295 295 293 297 295 292 290 288 296 301 297 295 296 295 288 282 284 289 292 289 296 302 304 305 306 307 308 309
309 307 305 304 310 311 301 286 285 288 291 289 291 289 289 291 293 293 292 291 294 296 290 291 289 297 298 298 298 294 291 297 288 290 285 290 296 300 302 303 304 305 306 308 308
305 299 297 301 309 306 292 288 290 292 292 291 287 289 287 288 289 291 291 295 294 297 298 293 287 294 295 297 297 296 297 288 290 281 281 288 290 292 297 298 301 302 303 305 308
304 295 296 302 307 296 285 288 292 294 294 290 288 288 288 287 289 288 289 293 295 294 297 295 292 291 294 292 291 293 291 291 291 289 283 282 287 299 298 300 300 302 304 305 306
295 288 298 301 288 286 286 291 293 292 294 292 293 291 289 288 287 287 287 291 297 296 290 294 292 286 289 295 295 294 292 292 286 285 287 286 286 300 300 300 299 300 302 304 306
290 291 295 298 284 286 287 289 291 291 292 291 290 292 292 289 285 288 289 296 297 294 292 293 288 282 284 289 293 291 290 290 290 289 284 281 285 298 298 298 298 300 302 303 305
291 285 289 290 289 290 288 287 286 292 291 292 291 292 290 288 291 287 288 293 295 294 295 294 289 285 281 285 289 286 288 290 289 284 284 285 287 291 293 295 297 300 302 303 304
291 286 290 285 286 289 288 286 286 285 289 291 289 290 288 284 286 286 289 290 292 294 294 293 284 287 288 288 288 287 287 288 287 288 284 286 287 291 294 296 298 300 300 300 301
287 288 290 287 289 286 285 283 283 284 286 285 284 286 288 285 285 283 287 287 287 291 290 290 285 284 283 287 287 285 287 288 288 289 288 289 288 296 297 298 298 298 299 299 298
293 292 292 284 287 285 284 284 284 286 285 287 287 286 284 286 289 289 289 289 289 287 287 287 285 282 280 285 285 281 286 288 289 291 290 286 292 296 295 295 297 298 299 300 301
Wind_Speed
11 11 10 9 8 7 5 4 3 3 6 10 12 15 18 17 19 6 3 5 6 10 10 9 5 2 4 3 2 3 7 9 7 8 2 6 11 7 6 7 9 7 3 3 22
12 11 10 10 9 8 6 5 3 3 5 9 12 15 18 16 12 11 4 1 3 8 7 9 8 7 3 3 4 8 7 6 4 4 5 4 9 11 10 14 12 10 5 16 20
14 13 11 10 10 9 8 5 3 2 4 7 11 14 18 16 10 3 3 3 3 6 4 5 5 5 4 3 5 4 10 3 7 6 6 5 7 10 17 19 17 18 16 20 20
13 12 12 11 11 10 8 7 6 6 4 6 9 12 19 7 7 4 1 3 5 6 5 4 4 4 4 6 3 10 10 10 10 2 7 9 5 11 16 12 10 10 18 20 20
14 13 12 12 11 11 9 8 10 7 3 4 7 11 9 6 10 3 3 1 2 3 4 3 4 2 6 3 7 13 12 8 10 11 11 10 14 12 12 12 5 10 18 20 19
14 13 13 13 12 10 9 7 8 7 4 2 6 10 4 12 5 4 1 4 5 6 5 5 4 3 6 7 9 3 9 12 10 13 11 13 16 8 14 7 9 15 19 19 20
13 13 13 12 11 10 8 8 9 7 3 1 3 3 6 20 5 4 5 6 7 10 11 5 4 7 1 6 4 9 13 14 16 15 12 10 19 17 16 12 14 15 17 18 19
15 13 12 11 10 9 8 8 8 5 3 1 1 2 9 12 8 13 13 13 10 12 11 6 3 7 8 4 7 11 11 12 4 7 13 12 20 18 17 14 16 18 17 18 20
12 11 11 9 9 14 13 12 7 3 2 4 5 5 10 0 7 6 10 9 4 5 9 4 7 6 5 10 11 11 13 11 10 8 10 14 14 10 12 14 17 17 17 18 18
11 12 13 14 15 14 13 10 7 6 5 5 2 6 7 4 0 0 3 4 4 8 8 8 8 9 10 12 13 13 12 10 12 3 10 18 21 14 9 14 17 18 19 19 20
14 15 16 14 15 16 12 6 4 6 8 9 5 4 1 2 4 5 4 6 6 9 11 12 10 12 18 16 17 13 14 15 13 9 13 18 21 17 15 16 17 17 17 19 22
19 18 17 18 10 9 2 3 4 5 7 17 17 18 15 5 6 9 6 8 8 12 8 7 16 14 15 12 14 15 17 18 16 14 14 20 26 20 20 21 20 21 21 21 22
24 22 19 16 14 5 1 1 4 7 6 6 12 12 11 13 12 15 11 6 10 14 14 18 7 5 7 14 13 17 19 17 17 15 17 21 30 25 22 25 22 22 23 24 25
18 20 21 18 8 6 2 4 3 2 2 6 7 3 6 7 7 7 18 12 10 13 17 15 11 18 17 15 12 18 13 12 14 13 12 5 18 14 13 12 15 21 23 25 25
19 21 17 5 11 7 8 9 5 0 5 7 5 5 4 7 3 4 1 13 21 13 6 4 3 4 12 16 12 12 6 10 12 14 16 15 13 1 3 7 14 17 20 22 23
18 18 17 5 4 5 11 11 5 4 9 6 5 6 7 8 2 4 2 4 3 16 18 20 10 7 3 2 6 6 7 9 8 9 11 15 13 20 6 13 16 5 9 15 19
20 20 10 7 6 10 12 6 5 7 4 8 5 6 5 5 7 6 7 9 6 6 13 15 22 19 12 14 9 8 7 6 9 8 8 2 11 16 18 13 10 12 19 11 13
20 18 5 2 6 12 9 5 7 6 5 3 4 5 4 5 3 8 7 7 7 4 3 5 6 7 13 17 9 9 13 8 9 8 5 2 11 7 5 8 7 8 10 11 5
21 4 5 2 5 7 9 7 6 5 4 5 6 9 6 5 2 5 4 3 4 3 4 2 4 4 7 4 8 4 9 12 8 7 5 10 21 20 8 10 13 10 16 12 9
4 3 3 4 1 5 4 13 7 1 2 3 8 4 7 4 6 6 5 2 3 6 4 3 6 2 2 5 6 8 2 1 4 5 8 9 11 10 13 11 15 18 18 17 12
4 5 2 2 2 3 8 6 8 4 3 2 5 6 4 4 4 3 4 5 2 4 4 3 3 7 3 5 3 4 7 7 9 6 5 12 11 12 10 14 15 19 18 15 15
3 3 3 3 4 3 4 7 3 8 4 3 4 6 4 2 2 2 5 2 3 2 2 4 3 7 10 8 9 10 10 7 4 8 5 6 10 15 13 17 20 19 19 21 21
4 4 2 1 7 5 2 5 3 7 6 4 4 1 2 4 4 4 4 4 3 2 2 3 2 7 8 6 2 3 2 4 6 4 14 12 11 12 22 24 22 13 19 20 22
4 4 2 2 3 6 7 6 6 4 5 2 3 4 3 5 4 4 4 2 1 1 4 2 8 10 14 14 12 16 16 12 12 11 14 16 21 22 26 25 19 15 16 17 17
1 3 1 6 5 7 4 5 9 6 4 8 5 9 8 6 8 12 9 8 6 3 6 6 7 10 17 20 15 16 18 20 20 19 19 22 24 24 24 23 21 16 16 16 15
3 4 3 4 11 10 6 6 9 7 9 9 5 7 8 6 5 2 3 4 5 4 3 2 3 5 10 12 12 17 21 23 22 23 23 25 25 28 21 15 15 17 17 14 12
1 2 2 3 10 8 10 12 13 10 3 4 7 6 6 2 1 2 4 6 9 9 8 8 5 5 17 12 7 12 22 22 23 21 18 17 22 19 17 17 15 16 18 17 12
Wind_Direction
210 211 207 208 207 217 245 246 268 302 334 332 335 331 328 334 312 292 257 24 326 319 301 309 258 359 216 196 217 254 253 262 254 241 209 169 200 198 184 176 200 178 287 36 143
208 212 213 212 218 218 226 260 353 355 335 332 333 331 325 334 310 288 81 67 301 321 332 351 358 332 207 196 198 234 248 279 324 297 270 229 224 186 201 194 197 185 128 130 150
204 206 210 216 216 218 224 220 204 251 312 324 331 330 320 319 287 123 124 222 270 286 312 313 298 303 265 237 188 192 254 337 251 284 288 289 249 218 222 207 215 205 166 162 165
206 205 206 213 218 220 219 213 204 229 260 319 331 330 315 301 296 118 73 267 276 287 293 320 303 285 283 251 222 254 238 262 274 228 282 271 296 223 229 223 258 225 169 171 177
201 202 204 211 218 221 218 208 214 223 244 319 330 334 327 295 259 118 149 144 228 309 331 334 297 288 269 276 266 246 262 265 258 274 274 273 259 259 233 225 247 188 174 181 185
201 200 202 208 214 220 222 218 219 206 206 306 334 323 287 278 298 261 267 271 260 279 275 257 285 313 275 262 252 339 278 273 272 262 253 264 261 228 233 173 203 181 185 187 192
206 202 203 207 212 213 217 215 196 188 191 311 334 303 251 245 278 272 279 269 280 281 268 248 254 245 269 251 265 270 275 266 251 247 245 259 252 226 239 189 192 197 196 193 196
207 202 209 203 210 208 218 160 153 156 163 161 287 213 248 264 292 277 261 267 255 250 245 237 215 263 247 290 239 259 256 268 155 249 225 230 259 242 203 195 199 202 198 200 199
204 203 211 189 160 132 121 119 127 138 179 165 214 243 260 124 243 273 234 243 185 197 207 203 198 234 203 239 250 213 267 239 277 240 260 224 268 252 152 202 224 210 203 203 199
181 161 151 143 134 123 123 128 151 156 187 186 227 240 240 252 266 275 167 213 209 146 156 203 203 220 222 221 240 261 232 244 261 237 250 259 260 248 211 228 231 222 215 205 207
132 132 126 118 125 130 118 112 174 193 208 222 182 268 237 282 239 203 184 190 188 204 214 200 214 211 224 224 259 275 272 264 264 261 288 267 270 266 260 211 236 231 222 215 215
119 118 116 112 102 103 64 210 352 351 282 229 250 251 267 304 270 218 187 208 207 224 186 193 232 240 266 292 259 255 260 263 275 276 275 274 273 269 257 243 227 230 222 222 220
140 134 127 115 108 83 46 73 354 321 273 246 231 244 247 217 241 243 198 215 228 236 221 249 240 159 282 258 253 247 256 269 275 293 274 273 274 261 245 237 233 230 236 224 220
142 139 142 131 122 143 196 189 234 319 310 233 205 203 184 219 241 241 225 232 219 252 248 272 288 266 252 247 249 263 267 264 270 272 271 26 289 291 274 262 219 232 234 235 228
148 142 151 154 129 177 144 163 179 292 280 111 150 105 152 210 347 97 202 209 237 213 205 210 252 247 241 252 242 276 302 264 273 266 278 252 266 21 150 232 234 227 240 238 235
152 149 140 124 155 128 140 149 183 163 241 160 145 175 178 195 181 114 154 197 221 239 245 257 282 267 288 233 235 247 247 241 255 257 255 238 237 289 291 36 350 315 252 249 241
155 151 161 154 155 150 149 158 139 222 136 166 162 187 204 158 185 184 170 185 195 181 218 237 241 237 238 248 210 224 234 247 224 206 249 43 219 257 314 11 355 319 308 284 247
159 150 131 70 142 151 173 167 205 205 210 96 164 179 180 149 143 176 165 198 213 247 290 252 183 209 204 234 242 225 235 243 261 254 259 111 245 224 28 307 326 346 352 338 296
146 138 133 38 145 177 176 206 211 205 157 170 163 177 142 149 177 178 109 83 37 264 243 266 212 135 138 239 209 179 221 248 258 247 280 257 277 284 22 31 347 345 343 345 331
121 98 66 328 176 163 183 214 219 208 197 205 200 282 163 132 167 188 147 48 99 25 246 98 261 275 319 233 223 266 360 197 175 233 232 230 244 272 311 8 355 348 347 346 348
131 128 143 307 106 154 208 220 202 178 208 213 148 132 134 139 112 105 96 118 100 46 33 336 254 156 285 222 352 225 225 226 262 235 277 282 273 309 358 351 342 327 325 326 330
100 135 1 257 144 169 197 173 165 165 194 136 111 104 137 124 187 204 196 77 96 10 3 43 293 266 280 312 296 267 275 267 254 266 257 286 276 304 328 319 313 309 309 313 305
84 115 343 297 179 176 175 122 149 173 175 166 132 118 166 196 219 219 198 86 96 22 36 27 217 296 272 158 209 183 1 291 255 247 256 277 275 306 302 299 310 317 315 319 314
127 147 134 115 278 156 148 140 124 186 156 127 138 133 159 200 207 188 192 139 84 56 91 311 250 253 263 283 324 292 288 274 248 265 271 266 285 288 291 294 313 317 317 315 315
58 139 35 164 176 129 126 152 158 154 182 192 181 209 210 236 223 232 237 245 236 238 225 235 245 238 252 265 268 266 267 263 258 251 259 276 277 281 281 297 310 311 307 310 311
128 156 145 100 151 140 127 163 179 164 180 185 189 178 203 222 252 160 175 196 247 177 149 171 257 215 266 263 259 263 259 254 255 261 266 267 270 270 289 290 297 296 301 297 296
135 125 175 148 162 164 182 173 188 173 170 98 168 165 184 166 251 359 266 269 259 264 264 250 259 275 268 272 278 255 249 250 253 248 244 254 262 278 279 289 293 299 303 306 291